Lid_Strength_Index
13 14 14 14 14 14 14 16 17 17 18 19 19 19 19 19 19 19 19 19 19 19 19 19 18 18 17 17 17 16 15 15
13 14 14 14 14 14 15 16 18 18 19 20 20 20 20 20 20 20 20 20 20 20 20 20 20 19 18 18 18 18 17 16
13 14 15 15 15 15 15 17 18 19 20 20 20 20 21 20 20 21 21 21 21 21 21 21 21 20 20 20 20 20 19 18
13 14 15 15 15 15 16 18 19 20 21 21 21 21 21 21 21 22 22 22 22 22 22 22 22 22 21 21 21 21 20 20
13 14 15 15 16 16 18 18 20 21 21 21 21 21 22 22 22 23 23 23 23 23 23 23 22 22 22 22 21 21 20 19
13 14 15 16 17 17 18 20 21 22 22 22 22 22 23 23 23 23 24 24 24 24 23 23 22 22 22 21 20 20 19 18
13 15 16 16 17 19 19 21 22 22 22 23 23 24 24 24 25 25 25 24 24 24 23 23 22 21 20 19 19 19 19 18
14 15 16 17 18 19 21 22 22 22 23 24 24 25 25 25 26 25 25 25 24 24 23 23 23 20 19 18 18 18 18 17
13 14 16 16 18 19 22 23 23 23 25 25 25 26 26 26 26 26 25 25 25 25 24 23 22 20 19 18 18 17 18 17
12 14 16 17 19 21 23 23 23 25 25 25 26 27 27 28 27 26 25 26 26 24 24 24 23 21 18 17 18 18 17 16
15 16 17 19 21 22 23 24 25 24 25 25 26 28 28 27 27 26 27 26 25 24 24 23 23 20 17 16 17 18 17 15
18 19 20 21 22 22 23 24 24 25 26 27 27 28 28 28 26 27 27 26 26 25 23 22 20 19 16 15 16 16 15 15
19 20 22 21 21 23 24 24 26 27 27 28 29 27 27 30 28 28 27 26 25 24 22 20 19 18 16 15 14 13 15 17
20 22 22 21 21 23 25 26 27 28 29 29 29 28 28 28 27 25 26 25 24 22 22 21 19 17 16 15 15 14 16 17
21 22 23 22 22 24 26 27 29 29 29 29 28 28 28 26 25 25 24 24 22 22 21 21 19 18 16 16 17 15 16 16
21 22 23 23 26 26 28 29 29 28 28 28 27 27 27 26 25 24 23 22 21 20 20 20 20 18 16 16 17 17 17 19
21 23 24 25 27 28 29 28 28 28 28 27 27 27 27 26 25 24 23 21 19 18 18 18 17 16 15 15 15 15 16 21
22 23 25 27 28 29 28 27 28 27 28 28 28 27 27 27 25 25 24 22 21 19 18 18 17 16 16 16 15 17 19 23
22 25 26 27 29 29 29 28 28 28 28 28 28 27 28 27 27 26 26 26 24 21 19 19 17 17 17 16 17 21 21 22
23 25 27 28 30 30 30 29 29 30 30 29 29 28 28 27 27 26 26 26 26 24 22 23 19 19 18 17 21 22 23 23